Regional Weather Roundup
Issued by NWS

Home | Current Version | Previous Version | Graphics & Text | Print | Product List | Glossary On
Versions: 1 2 3 4 5 6 7 8 9 10 11 12 13 14 15 16 17 18 19 20 21 22 23 24 25 26 27 28 29 30 31 32 33 34 35 36 37 38 39 40 41 42 43 44 45 46 47 48 49 50
000
ASUS43 KFSD 280202
RWRSD

WEATHER ROUNDUP FOR SOUTH DAKOTA
NATIONAL WEATHER SERVICE SIOUX FALLS SD
900 PM CDT THU AUG 27 2015

NOTE: "FAIR" INDICATES FEW OR NO CLOUDS BELOW 12,000 FEET WITH NO
SIGNIFICANT WEATHER AND/OR OBSTRUCTIONS TO VISIBILITY.


SDZ001>005-009-010-012>017-280300-
NORTHWEST AND NORTH CENTRAL SOUTH DAKOTA

CITY           SKY/WX    TMP DP  RH WIND       PRES   REMARKS
BUFFALO          N/A     71  57  61 S12       29.89S
FAITH            N/A     68  59  73 S10       29.95
MOBRIDGE       MOCLDY    68  65  90 E7        29.91S
$$

SDZ012>016-024>037-041>051-057-063-072>074-280300-
SOUTHWEST AND SOUTH CENTRAL SOUTH DAKOTA

CITY           SKY/WX    TMP DP  RH WIND       PRES   REMARKS
RAPID CTY ARPT CLEAR     67  61  81 S5        30.00S
PIERRE         CLOUDY    70  67  90 E7        29.92R
CUSTER         CLEAR     63  52  67 NE3       30.15R
ELLSWORTH AFB  CLEAR     69  62  76 S5        30.00R
PHILIP         CLEAR     64  62  93 N8        29.96R
PINE RIDGE     CLEAR     64  57  78 N3        30.01S
WINNER         CLOUDY    72  69  90 E9        29.91R
$$

SDZ004>011-016>023-039-040-280300-
NORTHEAST SOUTH DAKOTA

CITY           SKY/WX    TMP DP  RH WIND       PRES   REMARKS
ABERDEEN       CLOUDY    71  67  87 NE3       29.93S
WATERTOWN      CLOUDY    70  66  87 SE8       29.94F
BROOKINGS      CLOUDY    70  63  78 SE12      29.98F
$$

SDZ017-020-022-023-036>040-048>070-280300-
SOUTHEAST SOUTH DAKOTA

CITY           SKY/WX    TMP DP  RH WIND       PRES   REMARKS
SIOUX FALLS    TSTM      68  64  87 E14G24    29.96F FOG
HURON          CLOUDY    73  67  81 SE12      29.92R
CHAMBERLAIN    MOCLDY    68  68  99 SE8       29.89F
MITCHELL       LGT RAIN  70  69  97 E8        29.92R
YANKTON        CLOUDY    72  68  88 E12       29.91R
$$

ABBREVIATIONS USED IN REMARKS
   TC - TEMPERATURE IN CELSIUS
  WCI - WIND CHILL INDEX
   HX - HEAT INDEX
  VSB - VISIBILITY



USA.gov is the U.S. government's official web portal to all federal, state and local government web resources and services.